This demonstration page uses our WeatherBlox Daily Observations layout. Learn more.

Left ArrowRight Arrow

39.92423, -83.80882

Hourly Observations for January 5, 2019

Temp ( °F °C ) Dew Point ( °F °C ) Humidity (%) Winds ( mph kmh ) Pressure ( in mb ) Visibility ( mi km ) Precip ( " mm )
12:56 am 00:56 Cloudy 38 3.3 38 3.3 100 100 W 7 11 29.64 1004 7 11 N/A
1:56 am 01:56 Clear 37 2.8 36 2.2 96 96 WNW 10 17 29.65 1004 10 16 N/A
2:56 am 02:56 Clear 37 2.8 35 1.7 93 93 WNW 8 13 29.67 1005 10 16 N/A
3:56 am 03:56 Clear 36 2.2 33 0.6 89 89 WNW 10 17 29.70 1006 10 16 N/A
4:56 am 04:56 Clear 35 1.7 32 undefined 89 89 WNW 9 15 29.72 1006 10 16 N/A
5:56 am 05:56 Clear 34 1.1 31 -0.6 89 89 W 8 13 29.74 1007 10 16 N/A
6:56 am 06:56 Clear 32 undefined 31 -0.6 96 96 W 7 11 29.78 1008 10 16 N/A
7:56 am 07:56 Clear 32 undefined 31 -0.6 96 96 W 9 15 29.82 1010 8 13 N/A
8:56 am 08:56 Sunny 35 1.7 32 undefined 89 89 W 10 17 29.85 1011 8 13 N/A
9:56 am 09:56 Sunny 37 2.8 34 1.1 89 89 W 13 20 29.88 1012 7 11 N/A
10:56 am 10:56 Sunny 40 4.4 35 1.7 83 83 W 12 19 29.89 1012 8 13 N/A
11:56 am 11:56 Sunny 43 6.1 38 3.3 82 82 W 12 19 29.89 1012 9 14 N/A
12:56 pm 12:56 Sunny 45 7.2 39 3.9 80 80 W 15 24 29.88 1012 9 14 N/A
1:56 pm 13:56 Sunny 47 8.3 40 4.4 77 77 WSW 12 19 29.90 1013 10 16 N/A
2:56 pm 14:56 Sunny 48 8.9 40 4.4 74 74 WSW 15 24 29.90 1013 10 16 N/A
3:56 pm 15:56 Sunny 49 9.4 40 4.4 71 71 WSW 13 20 29.91 1013 10 16 N/A
4:56 pm 16:56 Sunny 47 8.3 40 4.4 77 77 WSW 12 19 29.94 1014 10 16 N/A
5:56 pm 17:56 Clear 44 6.7 39 3.9 83 83 WSW 10 17 29.96 1015 10 16 N/A
6:56 pm 18:56 Clear 43 6.1 38 3.3 82 82 WSW 10 17 29.97 1015 10 16 N/A
7:56 pm 19:56 Clear 42 5.6 38 3.3 85 85 WSW 10 17 29.99 1016 10 16 N/A
8:56 pm 20:56 Clear 43 6.1 38 3.3 82 82 WSW 12 19 29.98 1015 10 16 N/A
9:56 pm 21:56 Clear 43 6.1 38 3.3 82 82 WSW 12 19 30.01 1016 10 16 N/A
10:56 pm 22:56 Clear 42 5.6 38 3.3 85 85 W 13 20 30.02 1017 10 16 N/A
11:56 pm 23:56 Clear 41 5 38 3.3 89 89 WSW 12 19 30.03 1017 10 16 N/A

Powered by AerisWeather